Regional Weather Roundup
Issued by NWS

Home | Current Version | Previous Version | Text Only | Print | Product List | Glossary On
Versions: 1 2 3 4 5 6 7 8 9 10 11 12 13 14 15 16 17 18 19 20 21 22 23 24 25 26 27 28 29 30 31 32 33 34 35 36 37 38 39 40 41 42 43 44 45 46 47 48 49 50
000
ASUS43 KIND 250609
RWRIN

WEATHER ROUNDUP FOR INDIANA
NATIONAL WEATHER SERVICE INDIANAPOLIS IN
100 AM EST THU DEC 25 2014

NOTE: "FAIR" INDICATES FEW OR NO CLOUDS BELOW 12,000 FEET WITH NO
SIGNIFICANT WEATHER AND/OR OBSTRUCTIONS TO VISIBILITY.

* - STATION DOES NOT REPORT WEATHER SUCH AS PRECIPITATION OR FOG.

+ - STATION NOT QUALITY CONTROLLED BY THE NATIONAL WEATHER SERVICE.
    USE DATA WITH CAUTION...ESPECIALLY DEWPOINT AND RELATIVE
    HUMIDITY OBSERVATIONS.

INZ001>003-010>013-019-020-250700-
NORTHWEST INDIANA

CITY           SKY/WX    TMP DP  RH WIND       PRES   REMARKS
GARY /AIRPORT/ CLOUDY    38  31  76 W14G20    29.65R
KNOX *+        CLOUDY    36  31  83 W14       29.64R
LA PORTE +     CLOUDY    37  36  93 W10G20    29.63R
6HR MIN TEMP:  37; 6HR MAX TEMP:  38;

MICHIGAN CITY+ CLOUDY    36  32  87 W8G17     29.64R
MONTICELLO +   CLOUDY    36  33  92 W14G21    29.69R
RENSSELAER +   CLOUDY    36  36 100 W13G21    29.69R
VALPARAISO     CLOUDY    36  33  89 W12       29.65R
6HR MIN TEMP:  35; 6HR MAX TEMP:  36; 6HR PCP:  0.01;


$$

LMZ046-743>745-250700-
SOUTHERN LAKE MICHIGAN

STATION/POSITION TIME  TEMP WIND        PRES
                       AIR  DIR/SP/G
                 (UTC) (F)  (DEG/KT/KT) (MB)
MICHIGAN CITY    0600   37  240/ 22/ 24   N/A

$$

INZ004-005-014>016-021>024-250700-
NORTH CENTRAL INDIANA

CITY           SKY/WX    TMP DP  RH WIND       PRES   REMARKS
GOSHEN         CLOUDY    36  33  89 W17       29.61R
6HR MIN TEMP:  33; 6HR MAX TEMP:  36; 6HR PCP:  0.03;

LOGANSPORT +   CLOUDY    34  32  93 W18G28    29.69R WCI  23
PERU/GRISSOM   CLOUDY    35  35 100 W18G26    29.67R WCI  25
6HR MIN TEMP:  35; 6HR MAX TEMP:  36; 6HR PCP: TRACE;

ROCHESTER +    CLOUDY    37  36  93 W14       29.65R
SOUTH BEND     CLOUDY    37  33  85 W17       29.62R
6HR MIN TEMP:  34; 6HR MAX TEMP:  37; 6HR PCP:  0.06;

WARSAW +       CLOUDY    34  32  93 W14G21    29.62R WCI  24

$$

INZ006>009-017-018-025>027-250700-
NORTHEAST INDIANA

CITY           SKY/WX    TMP DP  RH WIND       PRES   REMARKS
ANGOLA *+      CLOUDY    36  34  93 W10       29.58R
AUBURN +       DRIZZLE   36  32  87 W12       29.61R
FORT WAYNE     CLOUDY    36  33  89 W21       29.64R
6HR MIN TEMP:  36; 6HR MAX TEMP:  37; 6HR PCP:  0.02;

HUNTINGTON +   DRIZZLE   35  33  95 W13G18    29.64R WCI  26
6HR MIN TEMP:  35; 6HR MAX TEMP:  37;


$$

INZ028-029-035-036-043>045-051>053-250700-
WEST CENTRAL INDIANA

CITY           SKY/WX    TMP DP  RH WIND       PRES   REMARKS
GREENCASTLE +  CLOUDY    34  32  93 W7        29.75R FOG     WCI  28
LAFAYETTE      CLOUDY    36  33  89 W15       29.72R
6HR MIN TEMP:  35; 6HR MAX TEMP:  36; 6HR PCP:  0.02;

TERRE HAUTE    CLOUDY    37  34  89 W12       29.79R
6HR MIN TEMP:  37; 6HR MAX TEMP:  38; 6HR PCP: TRACE;


$$

INZ030>032-037>040-046>048-054>057-064-065-250700-
CENTRAL INDIANA

CITY           SKY/WX    TMP DP  RH WIND       PRES   REMARKS
CP ATTERBURY + DRIZZLE   36  34  93 MISG      29.76R
FRANKFORT +    CLOUDY    36  36 100 SW18G25   29.72R FOG
INDIANAPOLIS   LGT RAIN  34  33  96 W16       29.73R WCI  24
6HR MIN TEMP:  34; 6HR MAX TEMP:  36; 6HR PCP:  0.01;

-EAGLE CREEK   CLOUDY    35  33  92 W8G18     29.72R WCI  29
6HR MIN TEMP:  35; 6HR MAX TEMP:  37; 6HR PCP:  0.03;

KOKOMO *+      CLOUDY    36  30  80 W18       29.68R
MARION +       CLOUDY    34  33  97 W14       29.68R WCI  25
MT COMFORT *+  CLOUDY    36  36 100 W15G22    29.72R
SHELBYVILLE    LGT RAIN  38  34  85 W16       29.73R
6HR MIN TEMP:  38; 6HR MAX TEMP:  39; 6HR PCP: TRACE;

ZIONSVILLE +   DRIZZLE   35  32  88 W14       29.71S WCI  26
6HR MIN TEMP:  35; 6HR MAX TEMP:  37;


$$

INZ033-034-041-042-049-050-058-059-250700-
EAST CENTRAL INDIANA

CITY           SKY/WX    TMP DP  RH WIND       PRES   REMARKS
MUNCIE         CLOUDY    36  33  89 W17G28    29.68R
6HR MIN TEMP:  36; 6HR MAX TEMP:  38; 6HR PCP: TRACE;


$$

INZ060-061-067>069-081>083-085>088-250700-
SOUTHWEST INDIANA

CITY           SKY/WX    TMP DP  RH WIND       PRES   REMARKS
EVANSVILLE     CLOUDY    40  35  83 W9        29.88R
6HR MIN TEMP:  39; 6HR MAX TEMP:  42; 6HR PCP: TRACE;

HUNTINGBURG *+ CLOUDY    37  34  87 W13       29.85R
6HR MIN TEMP:  37; 6HR MAX TEMP:  39;

WASHINGTON +   CLOUDY    37  33  84 W13       29.83R
6HR MIN TEMP:  37; 6HR MAX TEMP:  39;


$$

INZ062-063-066-070>080-084-089>092-250700-
SOUTH CENTRAL AND SOUTHEAST INDIANA

CITY           SKY/WX    TMP DP  RH WIND       PRES   REMARKS
BLOOMINGTON    CLOUDY    36  34  92 W12       29.78R
6HR MIN TEMP:  36; 6HR MAX TEMP:  38; 6HR PCP:  0.02;


$$



USA.gov is the U.S. government's official web portal to all federal, state and local government web resources and services.